Regional Weather Roundup
Issued by NWS

Home | Current Version | Previous Version | Text Only | Print | Product List | Glossary On
Versions: 1 2 3 4 5 6 7 8 9 10 11 12 13 14 15 16 17 18 19 20 21 22 23 24 25 26 27 28 29 30 31 32 33 34 35 36 37 38 39 40 41 42 43 44 45 46 47 48 49 50
000
ASUS43 KLOT 020510
RWRIL

ILLINOIS REGIONAL WEATHER ROUNDUP
NATIONAL WEATHER SERVICE CHICAGO/ROMEOVILLE IL
1200 AM CDT THU OCT 02 2014

NOTE: "FAIR" INDICATES FEW OR NO CLOUDS BELOW 12,000 FEET WITH NO
SIGNIFICANT WEATHER AND/OR OBSTRUCTIONS TO VISIBILITY.

* THESE STATIONS ARE NOT UNDER NWS QUALITY CONTROL. THEY ALSO MAY NOT
  REPORT WEATHER SUCH AS PRECIPITATION OR FOG.

ILZ001-002-007-009-015-016-024-020600-
NORTHWEST ILLINOIS

CITY           SKY/WX    TMP DP  RH WIND       PRES   REMARKS
MOLINE         CLOUDY    63  60  90 CALM      29.84R FOG
SAVANNA*       CLOUDY    63  59  88 E3        29.85S
$$

ILZ003-004-008-010-011-017-018-020600-
NORTH CENTRAL ILLINOIS

CITY           SKY/WX    TMP DP  RH WIND       PRES   REMARKS
ROCKFORD       CLOUDY    64  54  69 SE5       29.89S
FREEPORT*      CLOUDY    62  56  79 SE5       29.89R
ROCHELLE*      CLOUDY    63  56  78 CALM      29.88S
DE KALB*       CLOUDY    63  54  73 SE9       29.89S
PERU*          CLOUDY    67  61  81 E3        29.86F
$$

ILZ005-006-012>014-019>023-020600-
NORTHEAST ILLINOIS

CITY           SKY/WX    TMP DP  RH WIND       PRES   REMARKS
CHICAGO-OHARE  CLOUDY    65  52  62 SE9       29.88F
CHICAGO-MIDWAY CLOUDY    69  53  56 SE10      29.89F
AURORA         CLOUDY    66  55  67 SE6       29.89S
LANSING*       CLOUDY    64  51  64 SE8       29.90F
JOLIET*        CLOUDY    65  55  69 SE7       29.88S
WAUKEGAN       CLOUDY    62  55  77 SE8       29.89F
DUPAGE AIRPORT CLOUDY    66  54  65 SE6       29.88F
KANKAKEE*      DRIZZLE   65  58  78 SE9       29.90S
WHEELING       CLOUDY    65  53  65 CALM      29.90F
MORRIS*        LGT RAIN  66  61  83 CALM      29.86S
ROMEOVILLE*    CLOUDY    66  53  64 S13       29.88S
NORTHERLY ISL    N/A     64  55  72 SE9         N/A
$$

LMZ740>746-020600-
SOUTHERN LAKE MICHIGAN

STATION/POSITION SKY/WX   TEMP    WIND        PRES    VSBY  WAVE
                          AIR SEA DIR/SP/G                  HT/PER
                          (F)     (DEG/KT/KT) (MB)    (MI)  (FT/S)
SOUTHERN BUOY              63 62  140/ 17/ 21 1012.9F         2/ 4
WAUKEGAN HARBOR            62     160/  8/ 10   N/A
HARRISON CRIB              64     140/ 13/ 17   N/A
BURNHAM HARBOR             64     130/  5/ 10   N/A
CALUMET HARBOR             66     140/  8/ 12 1011.2F
BURNS HARBOR               65     140/ 10/ 22   N/A
MICHIGAN CITY              64     120/ 12/ 17   N/A
MICHIGAN CITY 6N           65 64  140/ 16/ 19   N/A           2/ 2
ST. JOSEPH                 63 63  120/ 16/ 19   N/A           2/ 2
$$

ILZ025>027-034>036-040-047-049-050-058-095>099-020600-
WEST-CENTRAL ILLINOIS

CITY           SKY/WX    TMP DP  RH WIND       PRES   REMARKS
QUINCY         CLOUDY    67  65  93 S12       29.79F
GALESBURG*     CLOUDY    66  64  93 SE6       29.83S
MACOMB*        CLOUDY    65  65  97 S5        29.85S FOG
JACKSONVILLE*  LGT RAIN  69  66  91 S12G25    29.86F
PITTSFIELD*    LGT RAIN  67  64  91 SE9       29.85F
$$

ILZ028>032-037-038-041>044-048-051>054-059>061-020600-
CENTRAL ILLINOIS

CITY           SKY/WX    TMP DP  RH WIND       PRES   REMARKS
PONTIAC        CLOUDY    70  64  83 SE10      29.86R
DECATUR        RAIN      67  64  90 W12       29.91F
PEORIA         CLOUDY    70  64  81 S14       29.85R HAZE
LACON*         CLOUDY    68  63  84 S5        29.83S
LINCOLN*       LGT RAIN  67  64  90 S14       29.85S
SPRINGFIELD    RAIN      67  65  93 S6        29.88F FOG
TAYLORVILLE    TSTM      63  63 100 CALM      29.89F
$$

ILZ033-039-045-046-055>057-062-063-020600-
EAST-CENTRAL ILLINOIS

CITY           SKY/WX    TMP DP  RH WIND       PRES   REMARKS
CHAMPAIGN      LGT RAIN  70  61  73 S16G25    29.90F
DANVILLE*      CLOUDY    66  60  81 SE6       29.90S
RANTOUL*       LGT RAIN  70  60  70 SE9       29.90F
MATTOON        CLOUDY    69  58  67 SE7       29.90S
PARIS*         CLOUDY    67  62  83 SE5       29.92F
$$

ILZ079-100>102-020600-
SOUTHWEST ILLINOIS

CITY           SKY/WX    TMP DP  RH WIND       PRES   REMARKS
ALTON          RAIN      66  65  94 NE5       29.89F
BELLEVILLE     CLOUDY    70  70 100 NE2       29.86F
CAHOKIA*       LGT RAIN  72  69  90 VRB3      29.86F FOG
SPARTA*        CLOUDY    73  63  72 SE5       29.89S
$$

ILZ064>066-069>071-074>076-080>082-084>086-088>090-092>094-020600-
SOUTH-CENTRAL ILLINOIS

CITY           SKY/WX    TMP DP  RH WIND       PRES   REMARKS
CARBONDALE     CLOUDY    70  61  73 SE6       29.89F
CAIRO*         MOCLDY    67  61  81 CALM      29.90S
EFFINGHAM*     CLOUDY    69  56  62 SE7       29.90F
MARION         MOCLDY    72  63  73 CALM      29.91S
CENTRALIA*     CLOUDY    71  61  70 S6        29.90S
SALEM*         CLOUDY    74  64  70 SE5       29.89F
METROPOLIS*    MOCLDY    65  63  90 CALM      29.91S
$$

ILZ067-068-072-073-078-083-087-091-020600-
SOUTHEAST ILLINOIS

CITY           SKY/WX    TMP DP  RH WIND       PRES   REMARKS
LAWRENCEVILLE  MOCLDY    66  58  75 S6        29.93S
FLORA*         MOCLDY    66  59  78 SE5       29.92S
FAIRFIELD*     CLOUDY    66  63  88 CALM      29.91S
HARRISBURG*    MOCLDY    66  61  84 CALM      29.92S
ROBINSON*      MOCLDY    63  60  90 CALM      29.93S
CARMI*         MOCLDY    64  61  88 SE5       29.92R
$$

ABBREVIATIONS USED IN REMARKS
   TC - TEMPERATURE IN CELSIUS
  WCI - WIND CHILL INDEX
   HX - HEAT INDEX
  VSB - VISIBILITY
$$



USA.gov is the U.S. government's official web portal to all federal, state and local government web resources and services.